Location: Newark
(36.0797°N, 3.9744°E)
Time: 05:18:24
(UTC+00:00)

Explorer 7 - Visible Passes

Search period start: 09 December 2019 00:00
Search period end: 19 December 2019 00:00
Orbit: 485 x 680 km, 50.3° (Epoch: 08 December)

Date Brightness Start Highest point End Pass type
(mag) Time Alt. Az. Time Alt. Az. Time Alt. Az.
09 Dec 9.2 18:07:43 10° NW 18:10:49 16° N 18:12:10 15° N visible
10 Dec 9.2 18:13:21 10° NW 18:16:12 15° N 18:16:56 15° N visible
11 Dec 9.3 18:18:48 10° NNW 18:21:35 15° N 18:21:42 15° N visible
12 Dec 9.2 18:24:00 10° NNW 18:26:29 16° N 18:26:29 16° N visible
13 Dec 9.2 18:29:01 10° NNW 18:31:17 17° N 18:31:17 17° N visible
14 Dec 9.2 16:52:43 10° NW 16:55:31 15° N 16:58:20 10° NNE visible
14 Dec 9.1 18:33:53 10° NNW 18:36:09 19° N 18:36:09 19° N visible
15 Dec 9.2 16:58:04 10° NNW 17:00:54 15° N 17:03:46 10° NE visible
15 Dec 8.9 18:38:42 10° NW 18:41:05 22° N 18:41:05 22° N visible
16 Dec 9.0 17:03:12 10° NNW 17:06:17 16° N 17:09:23 10° NE visible
16 Dec 8.7 18:43:30 10° NW 18:46:07 26° NNW 18:46:07 26° NNW visible
17 Dec 8.8 17:08:09 10° NNW 17:11:38 19° NNE 17:14:54 11° ENE visible
17 Dec 8.4 18:48:20 10° NW 18:51:15 33° NNW 18:51:15 33° NNW visible
18 Dec 8.6 17:13:00 10° NNW 17:16:55 23° NNE 17:20:13 12° ENE visible
18 Dec 8.1 18:53:13 10° NW 18:56:34 43° NW 18:56:34 43° NW visible
